Simultaneous Nadir Overpasses (SNOs) Predictions

Prediction of SNOs between FY3D and METOP-A Satellite Orbit:

Table of predicted SNOs for the next 14.0 days since TLE Epoch: 9/18/2020
Index Date (FY3D) Time (FY3D) Lat,Lon (FY3D) SZA (FY3D ) Date (METOP-A) Time (METOP-A) Lat,Lon (METOP-A) SZA (METOP-A ) Distance(km) Time Diff (sec)
1 10/01/2020 14:07:52 76.61, -49.06 80.48 10/01/2020 14:08:58 76.56, -45.79 80.24 84.45 66
2 10/01/2020 14:58:34 -76.53, 118.54 99.60 10/01/2020 14:59:41 -76.51, 121.37 99.78 73.33 67
3 10/01/2020 15:49:15 76.34, -73.42 80.18 10/01/2020 15:50:26 76.27, -72.16 80.03 33.94 71
4 10/01/2020 16:39:57 -76.26, 94.17 99.90 10/01/2020 16:41:09 -76.22, 95.01 100.00 22.71 72
5 10/01/2020 17:30:39 76.11, -97.97 79.94 10/01/2020 17:31:51 76.11, -98.04 79.93 1.71 72
6 10/01/2020 18:21:23 -76.13, 69.29 100.03 10/01/2020 18:22:33 -76.11, 69.30 100.06 1.73 70
7 10/01/2020 19:12:08 76.11,-123.34 79.97 10/01/2020 19:13:13 76.09,-123.44 79.94 3.28 65
8 10/01/2020 20:02:52 -76.12, 43.92 100.01 10/01/2020 20:03:55 -76.09, 43.89 100.05 3.58 63
9 10/01/2020 20:53:37 76.10,-148.70 79.99 10/01/2020 20:54:34 76.12,-148.68 79.99 1.57 57
10 10/01/2020 21:44:21 -76.12, 18.56 99.98 10/01/2020 21:45:16 -76.12, 18.65 100.00 2.37 55
11 10/01/2020 22:35:06 76.10,-174.06 80.02 10/01/2020 22:35:56 76.10,-174.09 80.00 0.66 50
12 10/01/2020 23:25:50 -76.12, -6.81 99.96 10/01/2020 23:26:38 -76.10, -6.75 99.99 2.36 48
13 10/02/2020 00:16:35 76.10, 160.57 80.04 10/02/2020 00:17:18 76.08, 160.51 80.02 2.64 43
14 10/02/2020 01:07:19 -76.12, -32.17 99.93 10/02/2020 01:08:00 -76.08, -32.16 99.97 3.73 41
